Theta_e
313 313 313 314 314 315 315 316 316 317 317 318 318 320 321 323 324 327 333 336 335 334 335 335 333 337 345 350 349 346 350 353 349 348 347 346 351 348 349 349 348 350 350 346 345
313 313 313 314 314 314 315 315 315 316 316 317 317 319 320 322 326 332 336 338 336 335 335 335 337 344 350 349 347 347 350 351 347 346 347 348 348 350 350 349 350 352 349 345 346
313 313 313 313 314 314 314 314 315 315 316 316 317 318 319 321 325 337 335 338 337 337 336 337 344 345 351 348 347 347 350 348 347 347 346 348 347 350 350 351 350 351 351 349 348
313 313 313 313 314 314 314 314 314 314 315 315 316 317 318 320 330 337 333 332 335 335 336 339 348 347 351 350 347 350 347 346 348 348 348 349 344 349 350 350 349 349 349 348 349
314 314 314 314 314 314 314 314 314 314 314 315 315 316 316 318 323 329 331 335 336 335 336 341 349 349 349 350 349 347 348 349 348 348 348 347 348 346 349 348 348 350 351 351 350
315 314 314 314 314 314 314 314 314 314 314 314 315 315 315 317 325 328 332 335 336 335 336 338 346 347 350 346 348 348 349 348 347 347 348 349 348 347 347 349 351 351 352 351 350
315 315 315 315 314 314 314 314 314 314 315 315 314 314 314 319 326 330 334 335 335 336 336 337 346 349 347 350 347 351 351 347 349 348 346 347 349 349 348 351 351 352 351 350 349
314 315 315 316 315 315 314 314 314 315 315 315 315 314 314 320 322 324 331 331 335 335 335 339 348 350 344 345 352 355 350 351 348 347 343 345 347 347 348 351 351 351 351 350 349
313 313 315 315 316 316 315 315 314 315 315 315 314 314 315 318 321 324 326 327 328 335 336 339 347 351 348 353 355 353 356 353 350 346 345 345 347 346 347 350 351 350 351 350 350
312 313 313 314 315 316 316 315 314 314 315 314 314 314 316 320 323 325 325 324 328 335 342 346 347 348 354 356 353 354 353 352 352 348 347 347 348 347 346 348 350 350 350 350 349
311 311 312 313 314 315 316 315 313 315 318 316 316 316 320 319 323 326 329 323 330 337 341 342 344 349 347 351 348 351 352 353 352 350 348 349 350 349 346 346 347 347 348 348 348
309 310 311 311 313 315 316 314 315 314 317 317 317 316 317 318 319 323 328 330 334 335 339 343 344 343 343 347 349 352 353 353 351 347 349 349 350 349 347 347 346 346 346 345 345
309 309 310 311 313 314 314 313 315 316 316 318 318 318 319 317 319 322 325 330 334 338 340 343 343 342 341 345 352 351 352 352 352 348 347 348 350 350 348 346 346 346 345 345 344
311 309 309 310 313 313 313 313 314 313 319 320 318 319 319 320 321 320 325 331 333 336 341 340 341 345 345 346 347 349 347 348 348 350 353 346 353 351 348 349 348 346 346 345 344
312 310 309 309 311 313 315 313 313 317 317 317 319 319 320 321 323 322 324 327 334 336 339 340 344 346 349 348 344 347 346 347 348 350 349 350 351 350 344 348 350 348 346 346 345
313 310 309 310 311 312 313 313 316 321 320 322 321 321 322 321 323 324 324 328 335 339 339 341 344 345 345 346 347 347 348 346 347 348 353 350 350 351 348 348 347 346 346 346 346
311 311 312 309 312 313 312 315 322 321 319 323 322 322 322 322 323 327 328 331 335 339 342 343 348 345 346 350 347 348 351 361 361 355 355 345 349 349 347 345 345 347 345 345 346
312 316 316 312 310 311 312 317 323 320 320 320 319 319 322 323 322 327 330 331 333 336 341 345 347 348 346 350 351 350 351 357 358 355 352 344 350 349 344 344 341 340 341 342 344
315 314 311 310 310 310 313 319 321 320 319 319 320 321 322 322 323 327 331 332 333 336 340 344 343 343 346 345 348 351 352 348 352 351 354 351 349 346 345 344 343 343 343 341 341
316 315 316 318 310 310 315 318 319 315 318 318 320 319 319 319 323 326 330 331 334 338 339 343 344 343 345 345 345 349 346 352 352 358 357 353 352 350 348 347 346 347 346 345 345
314 317 312 315 309 311 316 316 317 316 317 318 318 318 318 318 321 326 329 328 332 336 339 341 342 345 346 348 350 348 349 350 351 349 352 353 349 347 349 346 345 349 350 349 349
318 319 313 313 312 309 316 316 315 318 315 317 317 318 318 318 320 322 327 330 328 332 338 338 341 347 347 343 343 346 348 349 351 353 349 349 349 340 344 343 345 350 353 351 349
317 317 312 313 318 319 320 319 315 317 317 317 317 318 318 321 324 321 321 321 324 330 334 333 335 340 345 345 343 346 346 347 347 346 350 350 348 340 339 341 341 351 354 351 349
315 320 317 316 314 317 320 322 323 320 319 318 320 319 321 322 321 324 321 322 321 326 328 333 335 336 340 342 344 347 346 347 347 350 349 348 346 346 344 340 339 350 351 350 349
312 316 314 319 318 316 316 319 322 323 321 320 322 320 321 322 321 321 321 321 323 324 332 332 334 336 335 337 342 343 344 347 348 348 349 345 347 345 346 341 340 343 349 348 348
312 313 313 315 315 316 315 319 321 320 320 323 321 322 322 323 323 323 322 324 325 325 328 328 335 336 336 335 337 339 340 341 346 346 346 346 346 343 340 341 341 346 349 349 348
311 310 311 315 316 316 316 318 318 316 317 319 320 320 323 323 321 321 322 322 324 322 327 330 333 337 335 335 337 341 339 340 343 344 345 348 346 345 344 344 346 349 349 349 349
Wind_Speed
12 13 13 13 13 14 14 14 14 15 16 15 15 15 15 15 15 15 14 6 11 16 10 10 16 15 11 7 6 5 2 1 2 2 3 1 8 5 6 14 4 1 5 15 30
14 14 14 15 15 15 15 15 15 15 16 16 15 16 16 17 16 15 6 7 11 20 16 15 19 17 6 5 4 4 2 4 1 1 2 2 9 12 7 14 5 7 9 28 32
16 15 15 16 16 16 16 16 16 16 16 16 16 15 16 15 16 5 8 5 17 14 11 13 11 13 5 3 3 2 3 3 2 5 4 1 6 12 12 10 12 17 25 30 32
17 17 17 17 17 17 17 17 17 17 17 16 16 15 15 12 4 4 3 3 20 17 14 14 15 8 5 5 5 3 7 5 3 4 5 3 11 8 15 4 9 18 27 34 32
17 17 17 18 18 18 18 18 17 17 17 16 15 15 13 7 14 12 12 3 22 20 17 14 13 6 5 5 5 4 4 5 8 7 10 6 9 7 12 5 8 21 28 29 28
19 19 18 18 18 19 19 18 18 18 17 16 15 14 12 7 8 8 3 9 19 19 15 13 7 8 4 3 5 4 10 9 6 5 7 7 5 9 4 11 18 24 28 27 27
19 19 20 19 19 19 18 19 19 18 17 16 15 15 16 22 7 5 9 12 13 16 11 11 7 5 6 4 1 3 6 4 6 3 4 8 6 5 12 16 21 21 25 25 23
19 19 19 20 20 20 18 18 18 18 17 14 14 14 13 13 14 19 11 11 7 11 9 10 7 2 2 1 2 3 2 4 4 1 4 8 3 5 15 19 21 21 24 23 23
20 20 20 19 20 21 18 17 17 16 15 11 10 9 11 10 17 19 20 20 14 12 9 7 8 2 2 2 3 3 3 4 3 2 3 6 4 10 15 16 19 22 25 23 22
21 21 21 20 20 20 17 16 14 11 8 6 9 4 17 6 7 8 19 19 20 16 8 6 2 2 1 4 7 3 3 2 5 9 8 1 4 11 16 17 19 21 24 24 24
22 22 21 20 19 18 14 10 7 4 10 11 8 10 2 7 6 6 12 21 15 13 8 7 5 10 12 6 5 8 1 7 8 9 11 2 3 10 16 17 18 20 23 24 25
22 22 21 20 20 15 11 4 3 1 8 18 26 25 22 9 3 9 12 15 12 10 9 5 11 10 4 4 5 6 4 8 9 6 3 8 5 8 14 17 22 23 25 25 23
23 23 21 18 18 13 6 7 9 6 4 10 20 21 25 23 12 11 18 10 17 13 16 13 6 9 12 9 9 3 5 7 6 4 4 5 7 6 10 16 19 21 20 20 25
24 23 22 18 10 4 5 8 5 7 3 4 5 7 15 16 9 28 17 14 7 17 16 11 10 6 9 8 11 6 4 9 4 5 4 2 4 6 11 15 17 24 25 25 26
25 23 22 18 13 8 4 5 6 5 4 3 4 3 8 18 9 17 25 15 14 11 9 11 11 12 7 9 9 1 8 7 7 3 3 6 5 5 6 11 18 22 30 30 29
28 25 24 16 10 6 9 6 7 3 7 0 5 6 6 15 7 7 17 14 8 9 7 10 3 10 9 7 10 10 6 2 3 1 5 9 7 6 7 12 13 17 27 29 30
30 23 20 15 3 6 11 9 4 5 2 3 1 5 5 10 12 9 16 17 13 14 14 6 7 4 8 7 3 4 5 2 3 4 5 5 7 11 7 10 8 12 21 25 27
32 21 13 11 11 14 5 3 6 3 5 3 2 1 7 10 14 9 17 19 16 17 13 15 10 11 7 6 9 10 3 4 6 5 5 2 7 6 10 10 12 14 14 15 23
30 10 3 4 14 12 10 7 7 4 3 5 4 1 2 4 5 9 17 22 21 18 15 15 15 5 11 6 6 5 9 6 1 1 3 3 5 10 9 13 11 11 11 19 22
18 3 12 2 14 18 4 6 4 3 4 2 2 3 5 4 4 13 13 16 18 17 17 9 13 6 6 7 4 4 3 5 2 5 5 4 4 4 3 8 6 6 6 11 12
10 4 17 7 20 4 5 6 4 6 5 3 2 5 5 4 2 7 9 7 21 16 17 13 9 5 11 12 14 5 6 4 2 2 5 4 4 6 7 8 8 4 5 3 1
7 2 5 7 2 1 2 3 2 4 2 1 2 4 5 4 4 2 8 10 16 18 16 14 11 7 7 2 4 10 10 11 7 5 3 3 5 4 3 5 4 2 5 4 3
7 2 4 9 2 1 3 4 4 3 5 3 3 4 2 2 4 2 3 2 8 15 18 10 11 9 7 5 4 9 8 19 10 3 12 9 4 0 1 5 7 3 4 7 7
6 2 3 3 3 3 5 3 3 2 2 3 3 3 4 5 5 4 3 3 3 6 12 21 19 20 16 14 8 8 15 17 19 14 13 13 14 7 11 6 2 3 6 6 8
9 3 4 3 2 5 4 4 4 3 2 2 3 4 1 3 2 5 4 6 3 7 4 10 13 17 21 18 16 18 17 18 17 19 16 14 15 12 13 9 10 9 13 14 14
6 6 7 5 6 4 1 1 3 6 3 1 3 5 3 5 8 2 7 4 3 2 4 4 5 11 23 22 22 22 22 21 22 23 21 16 15 11 9 4 11 19 20 20 19
9 5 3 4 4 3 1 3 2 11 6 10 8 8 9 4 7 15 19 19 17 6 2 7 5 7 11 16 18 21 28 24 18 16 17 19 17 18 10 12 17 17 17 17 21
Wind_Direction
316 315 315 311 312 312 313 314 314 316 316 319 320 318 319 316 313 301 284 266 191 181 174 163 170 165 160 191 192 193 224 170 44 56 99 111 166 145 119 131 126 50 159 167 159
313 312 311 309 309 308 308 308 310 310 310 312 315 313 317 319 315 297 275 222 192 202 211 190 175 167 186 180 186 213 217 203 181 284 162 134 196 158 151 146 120 96 138 160 158
315 313 307 307 307 307 306 307 307 305 305 307 309 310 314 322 319 167 67 199 186 183 189 189 191 164 182 180 203 170 248 185 248 221 222 348 180 174 163 187 184 174 155 162 165
316 314 309 304 303 304 303 304 304 303 303 303 304 305 309 315 284 193 297 332 186 184 185 185 161 172 188 195 182 246 240 222 247 238 188 218 152 192 194 184 180 182 175 168 172
314 311 308 306 304 302 299 298 301 300 299 298 300 301 307 288 261 276 290 227 185 184 190 180 169 189 207 175 169 242 245 224 248 248 246 210 199 186 198 183 169 169 169 172 174
316 312 307 305 302 300 299 300 299 295 293 294 294 294 293 267 270 274 251 174 184 184 187 195 205 208 144 175 196 218 264 265 268 231 227 199 191 184 150 150 146 162 170 174 178
314 312 310 305 303 300 300 302 298 292 290 288 284 282 273 255 279 280 152 161 181 190 199 197 204 179 156 187 252 280 279 219 204 222 169 163 123 185 153 154 151 164 170 173 180
313 307 306 305 303 302 304 303 298 295 289 281 273 270 257 267 246 235 168 158 192 196 205 190 190 197 144 137 238 266 274 183 57 102 140 198 112 131 158 158 155 167 172 175 184
317 310 304 304 304 304 309 305 301 295 285 270 252 235 262 248 237 235 226 232 209 179 175 172 182 164 141 207 203 359 79 27 344 46 206 220 114 152 167 168 163 173 176 180 187
321 314 310 305 302 304 313 308 299 287 271 220 218 231 242 221 224 226 215 212 179 170 144 155 141 208 189 198 215 157 70 16 328 343 342 137 126 156 174 178 176 180 181 186 195
327 321 315 309 302 307 312 313 293 267 216 205 210 215 133 206 194 205 197 170 169 169 175 174 199 213 216 243 98 91 323 306 300 306 329 317 156 180 181 187 186 190 188 193 201
330 324 318 314 306 306 305 270 235 262 294 247 243 240 234 247 325 186 162 162 163 177 146 151 226 219 246 210 158 200 253 303 302 335 250 298 266 186 192 204 199 197 196 198 200
332 327 322 320 311 301 269 233 203 339 267 271 233 234 232 229 227 221 176 174 177 169 189 202 214 203 220 223 194 176 246 277 275 332 240 287 262 196 202 215 214 218 218 207 201
332 327 323 324 313 308 293 190 194 301 283 247 219 238 202 203 225 230 202 176 176 191 178 212 202 173 187 227 189 237 240 267 270 210 211 247 252 218 206 205 215 216 218 214 208
331 324 318 316 298 293 172 178 307 152 280 125 172 161 188 188 165 209 210 205 197 162 176 195 180 185 197 206 141 329 288 272 230 251 281 192 245 217 173 217 223 214 218 218 216
329 321 309 303 285 241 212 258 147 203 243 304 146 165 156 202 197 142 177 190 196 162 202 187 172 192 207 226 136 182 191 67 73 332 244 221 224 241 196 214 215 217 224 222 216
331 321 299 282 217 170 158 157 190 220 359 142 164 175 200 186 209 188 174 183 178 183 190 174 169 143 136 97 39 117 185 187 187 199 238 158 196 251 253 239 221 200 216 222 222
333 321 295 262 216 195 180 170 216 244 249 337 359 267 203 162 210 195 176 184 198 191 186 193 197 171 163 165 182 172 239 218 207 195 200 167 220 229 259 237 222 240 250 228 220
337 341 51 180 194 174 165 201 212 216 315 331 315 99 157 192 214 190 193 196 187 190 195 200 200 144 176 128 147 159 209 266 232 66 242 182 255 273 249 260 251 242 246 243 229
349 88 7 227 175 158 187 225 237 233 319 324 20 21 38 343 213 195 186 197 188 190 194 193 203 164 135 102 42 184 129 186 220 211 223 197 262 217 239 257 260 297 298 287 256
5 72 30 122 148 188 210 230 248 255 250 323 21 344 342 314 319 203 199 178 196 186 200 187 213 135 155 202 167 151 200 237 226 234 224 227 217 223 262 294 292 345 33 6 214
7 52 87 61 172 36 246 241 283 246 205 291 273 256 266 293 279 269 220 231 191 168 186 195 208 188 191 116 233 201 182 205 223 187 245 270 235 184 238 257 279 121 106 97 155
4 22 278 352 14 6 311 275 261 245 258 224 266 225 215 293 316 263 263 265 176 186 183 173 212 203 187 170 152 209 182 216 242 254 208 225 220 26 225 265 263 189 146 134 146
3 307 36 58 55 346 339 294 294 282 257 246 265 216 244 258 229 288 293 318 62 212 222 191 211 220 225 226 183 193 203 211 225 233 243 238 260 251 250 200 195 196 174 154 157
20 32 349 336 99 338 309 297 303 316 353 271 229 239 15 268 250 228 251 288 265 139 97 185 219 220 231 222 203 218 220 210 216 229 237 254 234 250 248 203 232 219 204 193 181
32 5 341 295 295 298 177 334 321 333 295 291 240 339 352 243 243 23 352 302 338 151 154 177 207 202 224 223 216 227 231 231 223 230 240 261 265 246 281 200 217 212 201 198 181
23 346 344 295 328 297 49 352 350 344 274 265 313 331 308 290 289 284 277 265 269 314 299 170 174 170 220 218 225 230 226 228 224 227 229 236 242 260 224 232 223 208 203 190 171